SL-16 DEB, 29098

Orbit data source: Space-Track

SL-16 DEB, 29098 is space debris in LEO originally from a launch on Fri, 26 Mar 1993 UTC launched from the Tyuratam Missile And Space Complex (TTMTR). Debris objects in space refer to the collection of defunct objects orbiting the Earth. Examples of debris include non-operational satellites, rocket bodies, and fragments generated from explosions, collisions, or faulty payload assembly.

Loading next visibility...
Identifier
29098, 1993-016AM
Orbit
LEO
Country
Flag of CISCIS
Related business
Manufacturer
Unknown
Mission
Spacecraft
Bus & Motor
Unknown
Mass
Unknown
Launch date (UTC)
1993-03-26 (33 years ago)
Launch vehicle
Unknown
Launch site
Tyuratam Missile And Space Complex (TTMTR)
Object type
Payload
Rocket body
Debris
Shape & HBR
Unknown shape, 0.1 m
Radar Cross Section
Small (<0.1 m²)

Expand to show TLE details & history
Last TLE update: 1 week ago

TLE from 1 week ago
0 SL-16 DEB
1 29098U 93016AM  25343.39647583  .00001670  00000-0  82464-3 0  9990
2 29098  70.9242 207.9208 0079177 127.1721  53.3313 14.17246718643893
Epoch: 2025-12-09T09:30Z
TLE epoch observation values (Epoch: 2025-12-09T09:30:55.511Z)
Latitude
-1.28165°
Longitude
167.24868°
Altitude
803.436 km
Speed
7.469 km/s
True Right ascension
01h 53m 26s
True Declination
-1° 16' 27"
Sunlit
Object was in full shadow at epoch
Visualization orbit readout
Latitude
Unknown
Longitude
Unknown
Altitude
Unknown
Speed
Unknown
Apparent Right ascension
Unknown
Apparent Declination
Unknown
Sunlit
N/A
Visualization observer readout
Local Sidereal Time
08:08:09
Azimuth
Unknown
Elevation
Unknown
Doppler factor
Unknown
Orbital elements
Apogee altitude
889.702 km
Perigee altitude
775.517 km
Semi-major axis
7,210.746 km
Eccentricity
0.00792
Inclination
70.9242°
RAAN
207.9208°
Arg. of periapsis
127.1721°
True anomaly
54.06335°
Mean anomaly
53.3313°
Eccentric anomaly
53.6969°
Mean motion
3.54465 °/min
Orbital period
101.56 mins
BSTAR
0.00082464
Loading maneuver chart data...
Computing Atmospheric mass density...
Loading historical data...
Loading historical data...
Loading historical data...
Loading historical data...
Loading historical data...
Loading historical data...
Loading historical data...

Documentation

Showing up to 5 results
|